Location: Poughquag
(41.6090°N, 73.6820°W)
Time: 05:28:25
(UTC-04:00)

STARLINK-1372 - Pass Details

Date: 29 May 2020
Orbit: 549 x 550 km, 53.0° (Epoch: 25 September)

Event Time Altitude Azimuth Distance (km) Brightness Sun altitude
Exits shadow 01:40:22 39° 69° (ENE) 835 4.7 -25.7°
Drops below altitude 10° 01:43:06 10° 57° (ENE) 1,824 6.8 -25.6°
Sets 01:45:20 0° 54° (NE) 2,720 7.9 -25.5°
